Time,TemperatureF,DewpointF,PressureIn,WindDirection,WindDirectionDegrees,WindSpeedMPH,WindSpeedGustMPH,Humidity,HourlyPrecipIn,Conditions,Clouds,dailyrainin,SolarRadiationWatts/m^2,SoftwareType,DateUTC
2013-07-11 00:00:00,73.0,71.2,29.76,SE,144,0.0,6.0,94,0.00,,OVC,0.00,0.00,VWS V14.00,2013-07-11 04:00:00,
2013-07-11 00:01:00,73.0,71.2,29.76,SE,144,0.0,0.0,94,0.00,,OVC,0.00,0.00,VWS V14.00,2013-07-11 04:01:00,
2013-07-11 00:02:00,73.0,71.2,29.76,ESE,123,0.0,5.0,94,0.00,,OVC,0.00,0.00,VWS V14.00,2013-07-11 04:02:00,
2013-07-11 00:08:00,73.0,71.2,29.76,South,173,0.0,5.0,94,0.00,,OVC,0.00,0.00,VWS V14.00,2013-07-11 04:08:00,
2013-07-11 00:12:00,73.0,71.2,29.75,South,182,0.0,5.0,94,0.00,,OVC,0.00,0.00,VWS V14.00,2013-07-11 04:12:00,
2013-07-11 00:15:00,73.0,71.2,29.75,South,182,0.0,5.0,94,0.00,,OVC,0.00,0.00,VWS V14.00,2013-07-11 04:15:00,
2013-07-11 00:18:00,73.0,71.2,29.75,SSE,167,0.0,0.0,94,0.00,,OVC,0.00,0.00,VWS V14.00,2013-07-11 04:18:00,
2013-07-11 00:23:00,72.9,71.1,29.75,SSE,167,0.0,0.0,94,0.00,,OVC,0.00,0.00,VWS V14.00,2013-07-11 04:23:00,
2013-07-11 00:28:00,72.9,71.1,29.75,SSE,167,0.0,0.0,94,0.00,,OVC,0.00,0.00,VWS V14.00,2013-07-11 04:28:00,
2013-07-11 00:30:00,72.9,71.1,29.75,SSE,167,0.0,1.0,94,0.00,,OVC,0.00,0.00,VWS V14.00,2013-07-11 04:30:00,
2013-07-11 00:33:00,72.9,71.1,29.75,SE,131,0.0,5.0,94,0.00,,OVC,0.00,0.00,VWS V14.00,2013-07-11 04:33:00,
2013-07-11 00:38:00,73.0,71.5,29.75,SSW,204,0.0,5.0,95,0.00,,OVC,0.00,0.00,VWS V14.00,2013-07-11 04:38:00,
2013-07-11 00:43:00,73.0,71.5,29.75,South,188,0.0,0.0,95,0.00,,OVC,0.00,0.00,VWS V14.00,2013-07-11 04:43:00,
2013-07-11 00:45:00,73.0,71.5,29.75,South,188,0.0,5.0,95,0.00,,OVC,0.00,0.00,VWS V14.00,2013-07-11 04:45:00,
2013-07-11 00:48:00,73.0,71.2,29.75,SSW,209,0.0,3.0,94,0.00,,OVC,0.00,0.00,VWS V14.00,2013-07-11 04:48:00,
2013-07-11 00:53:00,73.0,71.5,29.77,SSW,209,0.0,3.0,95,0.00,,OVC,0.00,0.00,VWS V14.00,2013-07-11 04:53:00,
2013-07-11 00:58:00,73.1,71.6,29.77,South,181,0.0,0.0,95,0.00,,OVC,0.00,0.00,VWS V14.00,2013-07-11 04:58:00,
2013-07-11 01:00:00,73.1,71.6,29.77,South,181,0.0,3.0,95,0.00,,OVC,0.00,0.00,VWS V14.00,2013-07-11 05:00:00,
2013-07-11 01:04:00,73.1,71.3,29.77,SSW,211,0.0,2.0,94,0.00,,OVC,0.00,0.00,VWS V14.00,2013-07-11 05:04:00,
2013-07-11 01:09:00,73.1,71.3,29.77,SE,144,1.0,4.0,94,0.00,,OVC,0.00,0.00,VWS V14.00,2013-07-11 05:09:00,
2013-07-11 01:14:00,73.1,71.3,29.76,SW,226,0.0,0.0,94,0.00,,OVC,0.00,0.00,VWS V14.00,2013-07-11 05:14:00,
2013-07-11 01:15:00,73.1,71.3,29.76,SW,226,0.0,6.0,94,0.00,,OVC,0.00,0.00,VWS V14.00,2013-07-11 05:15:00,
2013-07-11 01:19:00,73.1,71.3,29.76,SSW,199,0.0,1.0,94,0.00,,OVC,0.00,0.00,VWS V14.00,2013-07-11 05:19:00,
2013-07-11 01:24:00,73.1,71.3,29.76,SSE,160,0.0,4.0,94,0.00,,OVC,0.00,0.00,VWS V14.00,2013-07-11 05:24:00,
2013-07-11 01:29:00,73.1,71.3,29.76,SSW,213,0.0,2.0,94,0.00,,OVC,0.00,0.00,VWS V14.00,2013-07-11 05:29:00,
2013-07-11 01:30:00,73.1,71.3,29.76,SE,139,0.0,4.0,94,0.00,,OVC,0.00,0.00,VWS V14.00,2013-07-11 05:30:00,
2013-07-11 01:34:00,73.0,71.2,29.76,South,183,0.0,3.0,94,0.00,,OVC,0.00,0.00,VWS V14.00,2013-07-11 05:34:00,
2013-07-11 01:39:00,73.0,71.2,29.76,South,183,0.0,3.0,94,0.00,,OVC,0.00,0.00,VWS V14.00,2013-07-11 05:39:00,
2013-07-11 01:44:00,73.0,71.2,29.75,South,183,0.0,1.0,94,0.00,,OVC,0.00,0.00,VWS V14.00,2013-07-11 05:44:00,
2013-07-11 01:45:00,73.0,71.2,29.75,South,183,0.0,3.0,94,0.00,,OVC,0.00,0.00,VWS V14.00,2013-07-11 05:45:00,
2013-07-11 01:49:00,73.0,71.2,29.75,South,183,0.0,1.0,94,0.00,,OVC,0.00,0.00,VWS V14.00,2013-07-11 05:49:00,
2013-07-11 01:55:00,73.0,71.2,29.75,SSE,148,0.0,1.0,94,0.00,,OVC,0.00,0.00,VWS V14.00,2013-07-11 05:55:00,
2013-07-11 02:00:00,73.0,71.2,29.74,SSE,148,0.0,0.0,94,0.00,,OVC,0.00,0.00,VWS V14.00,2013-07-11 06:00:00,
2013-07-11 02:05:00,73.0,71.2,29.74,SSE,148,0.0,0.0,94,0.00,,OVC,0.00,0.00,VWS V14.00,2013-07-11 06:05:00,
2013-07-11 02:10:00,72.9,71.1,29.74,South,186,0.0,0.0,94,0.00,,OVC,0.00,0.00,VWS V14.00,2013-07-11 06:10:00,
2013-07-11 02:15:00,73.0,71.2,29.74,South,186,0.0,0.0,94,0.00,,OVC,0.00,0.00,VWS V14.00,2013-07-11 06:15:00,
2013-07-11 02:20:00,73.0,71.2,29.74,South,185,0.0,0.0,94,0.00,,OVC,0.00,0.00,VWS V14.00,2013-07-11 06:20:00,
2013-07-11 02:25:00,72.9,71.1,29.74,South,185,0.0,1.0,94,0.00,,OVC,0.00,0.00,VWS V14.00,2013-07-11 06:25:00,
2013-07-11 02:30:00,73.0,71.2,29.74,SSE,166,0.0,4.0,94,0.00,,OVC,0.00,0.00,VWS V14.00,2013-07-11 06:30:00,
2013-07-11 02:35:00,73.0,71.2,29.73,SSE,167,0.0,5.0,94,0.00,,OVC,0.00,0.00,VWS V14.00,2013-07-11 06:35:00,
2013-07-11 02:41:00,73.1,71.3,29.73,SSE,164,0.0,5.0,94,0.00,,OVC,0.00,0.00,VWS V14.00,2013-07-11 06:41:00,
2013-07-11 02:45:00,73.1,71.3,29.73,SSE,164,0.0,5.0,94,0.00,,OVC,0.00,0.00,VWS V14.00,2013-07-11 06:45:00,
2013-07-11 02:46:00,73.1,71.3,29.73,SSE,164,1.0,4.0,94,0.00,,OVC,0.00,0.00,VWS V14.00,2013-07-11 06:46:00,
2013-07-11 02:51:00,73.1,71.3,29.73,SE,145,0.0,4.0,94,0.00,,OVC,0.00,0.00,VWS V14.00,2013-07-11 06:51:00,
2013-07-11 02:56:00,73.2,71.4,29.72,SE,145,0.0,4.0,94,0.00,,OVC,0.00,0.00,VWS V14.00,2013-07-11 06:56:00,
2013-07-11 03:00:00,73.2,71.4,29.73,SE,145,0.0,4.0,94,0.00,,OVC,0.00,0.00,VWS V14.00,2013-07-11 07:00:00,
2013-07-11 03:01:00,73.1,71.3,29.72,SSE,163,0.0,4.0,94,0.00,,OVC,0.00,0.00,VWS V14.00,2013-07-11 07:01:00,
2013-07-11 03:06:00,73.1,71.3,29.72,SSE,163,0.0,4.0,94,0.00,,OVC,0.00,0.00,VWS V14.00,2013-07-11 07:06:00,
2013-07-11 03:11:00,73.1,71.3,29.72,SSE,163,0.0,4.0,94,0.00,,OVC,0.00,0.00,VWS V14.00,2013-07-11 07:11:00,
2013-07-11 03:15:00,73.1,71.3,29.73,SSE,163,0.0,4.0,94,0.00,,OVC,0.00,0.00,VWS V14.00,2013-07-11 07:15:00,
2013-07-11 03:16:00,73.2,71.4,29.72,SSE,166,0.0,2.0,94,0.00,,OVC,0.00,0.00,VWS V14.00,2013-07-11 07:16:00,
2013-07-11 03:21:00,73.1,71.3,29.72,SSE,163,0.0,2.0,94,0.00,,OVC,0.00,0.00,VWS V14.00,2013-07-11 07:21:00,
2013-07-11 03:27:00,73.1,71.3,29.72,SSW,193,0.0,2.0,94,0.00,,OVC,0.00,0.00,VWS V14.00,2013-07-11 07:27:00,
2013-07-11 03:30:00,73.1,71.3,29.72,SSW,192,0.0,2.0,94,0.00,,OVC,0.00,0.00,VWS V14.00,2013-07-11 07:30:00,
2013-07-11 03:32:00,73.1,71.3,29.72,SSW,192,0.0,0.0,94,0.00,,OVC,0.00,0.00,VWS V14.00,2013-07-11 07:32:00,
2013-07-11 03:37:00,73.1,71.3,29.72,SSW,192,0.0,0.0,94,0.00,,OVC,0.00,0.00,VWS V14.00,2013-07-11 07:37:00,
2013-07-11 03:42:00,73.2,71.4,29.72,SSW,192,0.0,0.0,94,0.00,,OVC,0.00,0.00,VWS V14.00,2013-07-11 07:42:00,
2013-07-11 03:45:00,73.2,71.4,29.72,SSW,192,0.0,0.0,94,0.00,,OVC,0.00,0.00,VWS V14.00,2013-07-11 07:45:00,
2013-07-11 03:47:00,73.2,71.4,29.72,SSW,192,0.0,0.0,94,0.00,,OVC,0.00,0.00,VWS V14.00,2013-07-11 07:47:00,
2013-07-11 03:52:00,73.1,71.3,29.72,SSW,192,0.0,0.0,94,0.00,,OVC,0.00,0.00,VWS V14.00,2013-07-11 07:52:00,
2013-07-11 03:57:00,73.1,71.6,29.72,SSW,192,0.0,0.0,95,0.00,,OVC,0.00,0.00,VWS V14.00,2013-07-11 07:57:00,
2013-07-11 04:00:00,73.1,71.6,29.72,SSW,192,0.0,0.0,95,0.00,,OVC,0.00,0.00,VWS V14.00,2013-07-11 08:00:00,
2013-07-11 04:02:00,73.1,71.6,29.73,SSW,192,0.0,0.0,95,0.00,,OVC,0.00,0.00,VWS V14.00,2013-07-11 08:02:00,
2013-07-11 04:07:00,73.1,71.6,29.73,SSW,192,0.0,0.0,95,0.00,,OVC,0.00,0.00,VWS V14.00,2013-07-11 08:07:00,
2013-07-11 04:14:00,73.1,71.6,29.73,SSW,192,0.0,0.0,95,0.00,,OVC,0.00,0.00,VWS V14.00,2013-07-11 08:14:00,
2013-07-11 04:19:00,73.1,71.6,29.73,SSW,192,0.0,0.0,95,0.00,,OVC,0.00,0.00,VWS V14.00,2013-07-11 08:19:00,
2013-07-11 04:24:00,73.1,71.6,29.73,SSW,192,0.0,0.0,95,0.00,,OVC,0.00,0.00,VWS V14.00,2013-07-11 08:24:00,
2013-07-11 04:29:00,73.1,71.6,29.73,SSW,192,0.0,0.0,95,0.00,,OVC,0.00,0.00,VWS V14.00,2013-07-11 08:29:00,
2013-07-11 04:34:00,73.0,71.5,29.73,SSW,192,0.0,0.0,95,0.00,,OVC,0.00,0.00,VWS V14.00,2013-07-11 08:34:00,
2013-07-11 04:40:00,73.1,71.6,29.73,SSW,192,0.0,0.0,95,0.00,,OVC,0.00,0.00,VWS V14.00,2013-07-11 08:40:00,
2013-07-11 04:45:00,73.1,71.6,29.74,SSW,192,0.0,0.0,95,0.00,,OVC,0.00,0.00,VWS V14.00,2013-07-11 08:45:00,
2013-07-11 04:50:00,73.1,71.6,29.74,SSW,192,0.0,0.0,95,0.00,,OVC,0.00,0.00,VWS V14.00,2013-07-11 08:50:00,
2013-07-11 04:55:00,73.1,71.6,29.74,SSW,192,0.0,0.0,95,0.00,,OVC,0.00,0.00,VWS V14.00,2013-07-11 08:55:00,
2013-07-11 05:00:00,73.1,71.6,29.74,SSW,192,0.0,0.0,95,0.00,,OVC,0.00,0.00,VWS V14.00,2013-07-11 09:00:00,
2013-07-11 05:05:00,73.1,71.6,29.74,SSW,192,0.0,0.0,95,0.00,,OVC,0.00,0.00,VWS V14.00,2013-07-11 09:05:00,
2013-07-11 05:10:00,73.1,71.6,29.74,SSW,192,0.0,0.0,95,0.00,,OVC,0.00,0.00,VWS V14.00,2013-07-11 09:10:00,
2013-07-11 05:15:00,73.1,71.6,29.74,SSW,192,0.0,0.0,95,0.00,,OVC,0.00,0.00,VWS V14.00,2013-07-11 09:15:00,
2013-07-11 05:20:00,73.1,71.9,29.74,SSW,192,0.0,0.0,96,0.00,,OVC,0.00,0.00,VWS V14.00,2013-07-11 09:20:00,
2013-07-11 05:26:00,73.1,71.6,29.74,SSW,192,0.0,0.0,95,0.00,,OVC,0.00,0.00,VWS V14.00,2013-07-11 09:26:00,
2013-07-11 05:31:00,73.0,71.8,29.75,SSW,192,0.0,0.0,96,0.00,,OVC,0.00,0.00,VWS V14.00,2013-07-11 09:31:00,
2013-07-11 05:36:00,73.0,71.8,29.75,SSW,192,0.0,0.0,96,0.01,,OVC,0.01,0.00,VWS V14.00,2013-07-11 09:36:00,
2013-07-11 05:41:00,73.0,71.8,29.75,SSW,192,0.0,0.0,96,0.02,,OVC,0.02,0.00,VWS V14.00,2013-07-11 09:41:00,
2013-07-11 05:46:00,73.1,71.9,29.75,South,172,0.0,0.0,96,0.03,,OVC,0.03,0.00,VWS V14.00,2013-07-11 09:46:00,
2013-07-11 05:51:00,73.1,71.9,29.76,South,172,0.0,0.0,96,0.03,,OVC,0.03,0.00,VWS V14.00,2013-07-11 09:51:00,
2013-07-11 05:56:00,73.1,71.9,29.77,South,172,0.0,0.0,96,0.03,,OVC,0.03,0.00,VWS V14.00,2013-07-11 09:56:00,
2013-07-11 06:01:00,73.1,71.9,29.77,South,172,0.0,0.0,96,0.03,,OVC,0.03,0.00,VWS V14.00,2013-07-11 10:01:00,
2013-07-11 06:07:00,73.1,71.9,29.77,South,172,0.0,0.0,96,0.03,,OVC,0.03,0.00,VWS V14.00,2013-07-11 10:07:00,
2013-07-11 06:12:00,73.2,72.0,29.77,South,172,0.0,0.0,96,0.03,,OVC,0.03,0.00,VWS V14.00,2013-07-11 10:12:00,
2013-07-11 06:17:00,73.2,72.0,29.77,South,172,0.0,0.0,96,0.03,,OVC,0.03,0.00,VWS V14.00,2013-07-11 10:17:00,
2013-07-11 06:22:00,73.1,71.9,29.78,South,172,0.0,0.0,96,0.03,,OVC,0.03,0.00,VWS V14.00,2013-07-11 10:22:00,
2013-07-11 06:27:00,73.1,71.9,29.78,East,82,0.0,0.0,96,0.03,,OVC,0.03,0.00,VWS V14.00,2013-07-11 10:27:00,
2013-07-11 06:32:00,73.2,72.0,29.78,East,82,0.0,0.0,96,0.03,,OVC,0.03,0.00,VWS V14.00,2013-07-11 10:32:00,
2013-07-11 06:37:00,73.3,72.1,29.78,East,82,0.0,0.0,96,0.03,,OVC,0.03,5.00,VWS V14.00,2013-07-11 10:37:00,
2013-07-11 06:42:00,73.2,72.0,29.78,East,82,0.0,0.0,96,0.03,,OVC,0.03,12.00,VWS V14.00,2013-07-11 10:42:00,
2013-07-11 06:47:00,73.3,72.1,29.78,East,82,0.0,0.0,96,0.00,,OVC,0.03,23.00,VWS V14.00,2013-07-11 10:47:00,
2013-07-11 06:53:00,73.3,72.1,29.78,East,82,0.0,0.0,96,0.00,,OVC,0.03,33.00,VWS V14.00,2013-07-11 10:53:00,
2013-07-11 06:58:00,73.3,72.1,29.78,East,82,0.0,0.0,96,0.00,,OVC,0.03,39.00,VWS V14.00,2013-07-11 10:58:00,
2013-07-11 07:03:00,73.3,72.1,29.78,East,82,0.0,0.0,96,0.00,,OVC,0.03,18.00,VWS V14.00,2013-07-11 11:03:00,
2013-07-11 07:08:00,73.4,72.2,29.78,East,82,0.0,0.0,96,0.00,,OVC,0.03,14.00,VWS V14.00,2013-07-11 11:08:00,
2013-07-11 07:13:00,73.4,72.2,29.78,East,82,0.0,0.0,96,0.00,,OVC,0.03,26.00,VWS V14.00,2013-07-11 11:13:00,
2013-07-11 07:18:00,73.4,72.2,29.78,East,82,0.0,0.0,96,0.00,,OVC,0.03,42.00,VWS V14.00,2013-07-11 11:18:00,
2013-07-11 07:23:00,73.5,72.6,29.77,East,82,0.0,0.0,97,0.00,,OVC,0.03,46.00,VWS V14.00,2013-07-11 11:23:00,
2013-07-11 07:28:00,73.5,72.6,29.78,WSW,247,1.0,2.0,97,0.00,,OVC,0.03,53.00,VWS V14.00,2013-07-11 11:28:00,
2013-07-11 07:33:00,73.5,72.3,29.78,WSW,240,0.0,2.0,96,0.00,,OVC,0.03,67.00,VWS V14.00,2013-07-11 11:33:00,
2013-07-11 07:38:00,73.6,72.7,29.78,WSW,240,0.0,2.0,97,0.00,,OVC,0.03,83.00,VWS V14.00,2013-07-11 11:38:00,
2013-07-11 07:43:00,73.7,72.8,29.78,WSW,240,0.0,0.0,97,0.00,,OVC,0.03,95.00,VWS V14.00,2013-07-11 11:43:00,
2013-07-11 07:48:00,73.9,73.0,29.78,WSW,240,0.0,0.0,97,0.00,,OVC,0.03,67.00,VWS V14.00,2013-07-11 11:48:00,
2013-07-11 07:54:00,73.9,73.0,29.78,WSW,240,0.0,1.0,97,0.00,,OVC,0.03,49.00,VWS V14.00,2013-07-11 11:54:00,
2013-07-11 07:59:00,73.9,73.0,29.79,WSW,244,0.0,0.0,97,0.00,,OVC,0.03,54.00,VWS V14.00,2013-07-11 11:59:00,
2013-07-11 08:04:00,74.0,73.1,29.78,SE,125,0.0,1.0,97,0.00,,OVC,0.03,69.00,VWS V14.00,2013-07-11 12:04:00,
2013-07-11 08:09:00,74.1,73.2,29.79,SE,125,0.0,1.0,97,0.00,,OVC,0.03,74.00,VWS V14.00,2013-07-11 12:09:00,
2013-07-11 08:14:00,74.1,73.2,29.79,SE,124,0.0,0.0,97,0.00,,OVC,0.03,70.00,VWS V14.00,2013-07-11 12:14:00,
2013-07-11 08:19:00,74.2,73.3,29.79,SE,124,0.0,0.0,97,0.00,,OVC,0.03,67.00,VWS V14.00,2013-07-11 12:19:00,
2013-07-11 08:24:00,74.2,73.3,29.79,SE,124,0.0,0.0,97,0.00,,OVC,0.03,77.00,VWS V14.00,2013-07-11 12:24:00,
2013-07-11 08:29:00,74.3,73.4,29.79,SE,124,0.0,0.0,97,0.00,,OVC,0.03,90.00,VWS V14.00,2013-07-11 12:29:00,
2013-07-11 08:34:00,74.3,73.4,29.79,SE,125,0.0,1.0,97,0.00,,OVC,0.03,91.00,VWS V14.00,2013-07-11 12:34:00,
2013-07-11 08:39:00,74.4,73.5,29.79,SE,125,0.0,1.0,97,0.00,,OVC,0.03,102.00,VWS V14.00,2013-07-11 12:39:00,
2013-07-11 08:45:00,74.6,73.7,29.79,SE,125,0.0,0.0,97,0.00,,OVC,0.03,100.00,VWS V14.00,2013-07-11 12:45:00,
2013-07-11 08:50:00,74.5,73.6,29.79,SE,125,0.0,1.0,97,0.00,,OVC,0.03,111.00,VWS V14.00,2013-07-11 12:50:00,
2013-07-11 08:55:00,74.7,73.8,29.79,SE,125,0.0,1.0,97,0.00,,OVC,0.03,125.00,VWS V14.00,2013-07-11 12:55:00,
2013-07-11 09:00:00,74.8,73.9,29.79,SE,124,0.0,0.0,97,0.00,,OVC,0.03,113.00,VWS V14.00,2013-07-11 13:00:00,
2013-07-11 09:05:00,74.8,73.9,29.79,SE,125,0.0,0.0,97,0.00,,OVC,0.03,91.00,VWS V14.00,2013-07-11 13:05:00,
2013-07-11 09:10:00,74.9,73.7,29.79,SE,125,0.0,1.0,96,0.00,,OVC,0.03,90.00,VWS V14.00,2013-07-11 13:10:00,
2013-07-11 09:15:00,74.9,73.7,29.79,SE,125,0.0,0.0,96,0.00,,OVC,0.03,86.00,VWS V14.00,2013-07-11 13:15:00,
2013-07-11 09:20:00,75.0,73.8,29.79,SE,125,0.0,0.0,96,0.00,,OVC,0.03,83.00,VWS V14.00,2013-07-11 13:20:00,
2013-07-11 09:26:00,75.1,73.9,29.79,SE,125,0.0,0.0,96,0.00,,OVC,0.03,88.00,VWS V14.00,2013-07-11 13:26:00,
2013-07-11 09:31:00,75.1,73.9,29.79,SE,125,0.0,0.0,96,0.00,,OVC,0.03,93.00,VWS V14.00,2013-07-11 13:31:00,
2013-07-11 09:37:00,75.2,74.0,29.79,SE,125,0.0,0.0,96,0.00,,OVC,0.03,79.00,VWS V14.00,2013-07-11 13:37:00,
2013-07-11 09:42:00,75.2,74.0,29.79,SE,125,0.0,0.0,96,0.00,,OVC,0.03,76.00,VWS V14.00,2013-07-11 13:42:00,
2013-07-11 09:47:00,75.3,74.1,29.79,SE,125,0.0,0.0,96,0.00,,OVC,0.03,70.00,VWS V14.00,2013-07-11 13:47:00,
2013-07-11 09:52:00,75.2,74.0,29.79,SE,125,0.0,0.0,96,0.00,,OVC,0.03,70.00,VWS V14.00,2013-07-11 13:52:00,
2013-07-11 09:57:00,75.2,74.0,29.80,SE,125,0.0,0.0,96,0.00,,OVC,0.03,69.00,VWS V14.00,2013-07-11 13:57:00,
2013-07-11 10:03:00,75.2,73.7,29.80,SE,125,0.0,1.0,95,0.00,,OVC,0.03,58.00,VWS V14.00,2013-07-11 14:03:00,
2013-07-11 10:08:00,75.1,73.6,29.79,SE,125,0.0,1.0,95,0.00,,OVC,0.03,62.00,VWS V14.00,2013-07-11 14:08:00,
2013-07-11 10:13:00,75.1,73.6,29.79,SE,125,0.0,0.0,95,0.00,,OVC,0.03,74.00,VWS V14.00,2013-07-11 14:13:00,
2013-07-11 10:18:00,74.9,73.4,29.79,SE,125,0.0,0.0,95,0.00,,OVC,0.03,76.00,VWS V14.00,2013-07-11 14:18:00,
2013-07-11 10:23:00,74.9,73.1,29.79,SE,124,0.0,0.0,94,0.00,,OVC,0.03,74.00,VWS V14.00,2013-07-11 14:23:00,
2013-07-11 10:28:00,74.9,73.4,29.79,SE,125,0.0,0.0,95,0.00,,OVC,0.03,93.00,VWS V14.00,2013-07-11 14:28:00,
2013-07-11 10:33:00,74.9,73.1,29.79,SE,125,0.0,0.0,94,0.00,,OVC,0.03,97.00,VWS V14.00,2013-07-11 14:33:00,
2013-07-11 10:38:00,74.9,73.1,29.79,SE,124,0.0,0.0,94,0.00,,OVC,0.03,118.00,VWS V14.00,2013-07-11 14:38:00,
2013-07-11 10:44:00,74.8,72.6,29.79,West,278,0.0,0.0,93,0.00,,OVC,0.03,137.00,VWS V14.00,2013-07-11 14:44:00,
2013-07-11 10:49:00,74.9,73.1,29.79,West,279,0.0,0.0,94,0.00,,OVC,0.03,151.00,VWS V14.00,2013-07-11 14:49:00,
2013-07-11 10:54:00,75.0,73.2,29.79,West,279,0.0,0.0,94,0.00,,OVC,0.03,151.00,VWS V14.00,2013-07-11 14:54:00,
2013-07-11 10:59:00,75.1,72.9,29.79,NW,325,0.0,0.0,93,0.00,,OVC,0.03,165.00,VWS V14.00,2013-07-11 14:59:00,
2013-07-11 11:04:00,75.3,72.8,29.79,SSW,206,0.0,2.0,92,0.00,,OVC,0.03,169.00,VWS V14.00,2013-07-11 15:04:00,
2013-07-11 11:09:00,75.5,73.3,29.80,SSW,206,0.0,2.0,93,0.00,,OVC,0.03,146.00,VWS V14.00,2013-07-11 15:09:00,
2013-07-11 11:15:00,75.5,73.0,29.80,SSW,206,0.0,0.0,92,0.00,,OVC,0.03,130.00,VWS V14.00,2013-07-11 15:15:00,
2013-07-11 11:20:00,75.6,73.1,29.80,SSW,206,0.0,0.0,92,0.00,,OVC,0.03,123.00,VWS V14.00,2013-07-11 15:20:00,
2013-07-11 11:25:00,75.7,72.9,29.80,SSW,206,0.0,0.0,91,0.00,,OVC,0.03,123.00,VWS V14.00,2013-07-11 15:25:00,
2013-07-11 11:30:00,75.7,72.6,29.80,SSW,207,0.0,2.0,90,0.00,,OVC,0.03,135.00,VWS V14.00,2013-07-11 15:30:00,
2013-07-11 11:36:00,75.8,72.3,29.80,NW,309,0.0,2.0,89,0.00,,OVC,0.03,167.00,VWS V14.00,2013-07-11 15:36:00,
2013-07-11 11:41:00,75.8,72.0,29.80,NNE,19,1.0,4.0,88,0.00,,OVC,0.03,244.00,VWS V14.00,2013-07-11 15:41:00,
2013-07-11 11:46:00,75.9,71.8,29.80,NW,318,0.0,1.0,87,0.00,,OVC,0.03,313.00,VWS V14.00,2013-07-11 15:46:00,
2013-07-11 11:51:00,76.1,71.3,29.81,NW,318,0.0,2.0,85,0.00,,OVC,0.03,455.00,VWS V14.00,2013-07-11 15:51:00,
2013-07-11 11:56:00,76.5,71.7,29.81,North,350,0.0,4.0,85,0.00,,OVC,0.03,671.00,VWS V14.00,2013-07-11 15:56:00,
2013-07-11 12:01:00,77.0,70.7,29.81,NNE,19,0.0,4.0,81,0.00,,OVC,0.03,729.00,VWS V14.00,2013-07-11 16:01:00,
2013-07-11 12:07:00,77.5,70.1,29.81,NNE,22,0.0,4.0,78,0.00,,OVC,0.03,490.00,VWS V14.00,2013-07-11 16:07:00,
2013-07-11 12:12:00,77.8,70.8,29.80,NNE,22,0.0,4.0,79,0.00,,OVC,0.03,504.00,VWS V14.00,2013-07-11 16:12:00,
2013-07-11 12:17:00,78.1,70.7,29.80,North,5,0.0,2.0,78,0.00,,OVC,0.03,701.00,VWS V14.00,2013-07-11 16:17:00,
2013-07-11 12:22:00,78.6,70.4,29.80,NNE,27,3.0,3.0,76,0.00,,OVC,0.03,1078.00,VWS V14.00,2013-07-11 16:22:00,
2013-07-11 12:27:00,78.9,71.1,29.80,NNE,14,1.0,4.0,77,0.00,,OVC,0.03,751.00,VWS V14.00,2013-07-11 16:27:00,
2013-07-11 12:32:00,79.5,70.9,29.80,NNE,14,0.0,2.0,75,0.00,,OVC,0.03,427.00,VWS V14.00,2013-07-11 16:32:00,
2013-07-11 12:37:00,80.1,71.1,29.80,NNE,14,0.0,2.0,74,0.00,,OVC,0.03,469.00,VWS V14.00,2013-07-11 16:37:00,
2013-07-11 12:43:00,80.2,70.4,29.80,NW,311,1.0,1.0,72,0.00,,OVC,0.03,719.00,VWS V14.00,2013-07-11 16:43:00,
2013-07-11 12:48:00,80.2,70.8,29.80,NW,323,0.0,4.0,73,0.00,,OVC,0.03,490.00,VWS V14.00,2013-07-11 16:48:00,
2013-07-11 12:53:00,80.3,70.9,29.80,NW,326,0.0,4.0,73,0.00,,OVC,0.03,490.00,VWS V14.00,2013-07-11 16:53:00,
2013-07-11 12:58:00,80.3,70.9,29.80,NW,326,0.0,1.0,73,0.00,,OVC,0.03,394.00,VWS V14.00,2013-07-11 16:58:00,
2013-07-11 13:04:00,80.5,70.2,29.80,NW,326,0.0,1.0,71,0.00,,OVC,0.03,394.00,VWS V14.00,2013-07-11 17:04:00,
2013-07-11 13:09:00,80.8,71.3,29.79,NW,326,0.0,2.0,73,0.00,,OVC,0.03,381.00,VWS V14.00,2013-07-11 17:09:00,
2013-07-11 13:14:00,81.0,71.1,29.79,NW,326,0.0,0.0,72,0.00,,OVC,0.03,455.00,VWS V14.00,2013-07-11 17:14:00,
2013-07-11 13:19:00,81.2,71.7,29.79,NW,326,0.0,2.0,73,0.00,,OVC,0.03,654.00,VWS V14.00,2013-07-11 17:19:00,
2013-07-11 13:24:00,81.3,71.4,29.79,NW,326,1.0,2.0,72,0.00,,OVC,0.03,457.00,VWS V14.00,2013-07-11 17:24:00,
2013-07-11 13:29:00,81.4,71.5,29.79,NW,326,0.0,0.0,72,0.00,,OVC,0.03,457.00,VWS V14.00,2013-07-11 17:29:00,
2013-07-11 13:34:00,81.9,71.2,29.79,NNE,17,0.0,3.0,70,0.00,,OVC,0.03,691.00,VWS V14.00,2013-07-11 17:34:00,
2013-07-11 13:40:00,82.0,70.8,29.79,NNE,24,0.0,4.0,69,0.00,,OVC,0.03,504.00,VWS V14.00,2013-07-11 17:40:00,
2013-07-11 13:45:00,82.3,71.5,29.79,NNE,24,0.0,1.0,70,0.00,,OVC,0.03,396.00,VWS V14.00,2013-07-11 17:45:00,
2013-07-11 13:50:00,82.3,71.1,29.78,NNE,24,0.0,1.0,69,0.00,,OVC,0.03,847.00,VWS V14.00,2013-07-11 17:50:00,
2013-07-11 13:55:00,82.5,70.9,29.78,NNE,24,1.0,1.0,68,0.00,,OVC,0.03,719.00,VWS V14.00,2013-07-11 17:55:00,
2013-07-11 14:00:00,82.7,71.1,29.78,NNE,33,1.0,1.0,68,0.00,,OVC,0.03,745.00,VWS V14.00,2013-07-11 18:00:00,
2013-07-11 14:05:00,82.8,70.7,29.78,NNE,32,0.0,3.0,67,0.00,,OVC,0.03,865.00,VWS V14.00,2013-07-11 18:05:00,
2013-07-11 14:10:00,83.0,71.4,29.78,NNE,32,1.0,3.0,68,0.00,,OVC,0.03,854.00,VWS V14.00,2013-07-11 18:10:00,
2013-07-11 14:16:00,83.2,71.1,29.78,NNE,25,0.0,2.0,67,0.00,,OVC,0.03,554.00,VWS V14.00,2013-07-11 18:16:00,
2013-07-11 14:21:00,83.4,71.3,29.78,SSW,194,1.0,5.0,67,0.00,,OVC,0.03,1013.00,VWS V14.00,2013-07-11 18:21:00,
2013-07-11 14:26:00,83.7,71.6,29.78,SSE,165,5.0,5.0,67,0.00,,OVC,0.03,1013.00,VWS V14.00,2013-07-11 18:26:00,
2013-07-11 14:31:00,84.2,72.1,29.78,SSW,194,1.0,1.0,67,0.00,,OVC,0.03,788.00,VWS V14.00,2013-07-11 18:31:00,
2013-07-11 14:37:00,84.3,71.3,29.78,West,277,0.0,2.0,65,0.00,,OVC,0.03,789.00,VWS V14.00,2013-07-11 18:37:00,
2013-07-11 14:42:00,84.6,72.0,29.77,SSE,163,0.0,4.0,66,0.00,,OVC,0.03,700.00,VWS V14.00,2013-07-11 18:42:00,
2013-07-11 14:47:00,84.8,71.7,29.77,ENE,65,0.0,2.0,65,0.00,,OVC,0.03,817.00,VWS V14.00,2013-07-11 18:47:00,
2013-07-11 14:52:00,85.0,71.5,29.77,ENE,65,0.0,2.0,64,0.00,,OVC,0.03,721.00,VWS V14.00,2013-07-11 18:52:00,
2013-07-11 14:57:00,85.3,70.8,29.77,ENE,65,0.0,2.0,62,0.00,,OVC,0.03,664.00,VWS V14.00,2013-07-11 18:57:00,
2013-07-11 15:02:00,85.1,70.6,29.77,NE,34,0.0,3.0,62,0.00,,OVC,0.03,448.00,VWS V14.00,2013-07-11 19:02:00,
2013-07-11 15:07:00,84.8,70.8,29.77,NE,34,0.0,3.0,63,0.01,,OVC,0.04,557.00,VWS V14.00,2013-07-11 19:07:00,
2013-07-11 15:13:00,85.1,70.6,29.78,NE,34,0.0,3.0,62,0.01,,OVC,0.04,714.00,VWS V14.00,2013-07-11 19:13:00,
2013-07-11 15:18:00,85.0,70.5,29.78,NE,34,0.0,1.0,62,0.01,,OVC,0.04,253.00,VWS V14.00,2013-07-11 19:18:00,
2013-07-11 15:23:00,84.6,70.2,29.77,NE,34,0.0,1.0,62,0.01,,OVC,0.04,190.00,VWS V14.00,2013-07-11 19:23:00,
2013-07-11 15:28:00,84.5,71.0,29.77,NE,34,0.0,0.0,64,0.01,,OVC,0.04,232.00,VWS V14.00,2013-07-11 19:28:00,
2013-07-11 15:34:00,84.5,71.4,29.76,NE,34,0.0,1.0,65,0.01,,OVC,0.04,570.00,VWS V14.00,2013-07-11 19:34:00,
2013-07-11 15:39:00,84.7,73.0,29.76,NE,34,0.0,1.0,68,0.01,,OVC,0.04,680.00,VWS V14.00,2013-07-11 19:39:00,
2013-07-11 15:44:00,84.8,71.3,29.76,NE,34,1.0,1.0,64,0.01,,OVC,0.04,543.00,VWS V14.00,2013-07-11 19:44:00,
2013-07-11 15:49:00,84.9,71.4,29.76,NE,34,0.0,1.0,64,0.01,,OVC,0.04,673.00,VWS V14.00,2013-07-11 19:49:00,
2013-07-11 15:54:00,85.0,71.0,29.76,NNE,30,0.0,2.0,63,0.01,,OVC,0.04,262.00,VWS V14.00,2013-07-11 19:54:00,
2013-07-11 15:59:00,85.2,71.7,29.76,NNE,30,0.0,1.0,64,0.01,,OVC,0.04,281.00,VWS V14.00,2013-07-11 19:59:00,
2013-07-11 16:05:00,85.4,70.9,29.76,NNE,30,0.0,1.0,62,0.01,,OVC,0.04,561.00,VWS V14.00,2013-07-11 20:05:00,
2013-07-11 16:10:00,85.6,72.5,29.76,NNE,30,0.0,1.0,65,0.01,,OVC,0.04,584.00,VWS V14.00,2013-07-11 20:10:00,
2013-07-11 16:15:00,85.6,71.6,29.76,NNE,30,0.0,2.0,63,0.00,,OVC,0.04,504.00,VWS V14.00,2013-07-11 20:15:00,
2013-07-11 16:20:00,85.5,71.5,29.76,NNE,32,0.0,2.0,63,0.00,,OVC,0.04,218.00,VWS V14.00,2013-07-11 20:20:00,
2013-07-11 16:25:00,85.4,71.4,29.76,NNE,32,0.0,2.0,63,0.00,,OVC,0.04,288.00,VWS V14.00,2013-07-11 20:25:00,
2013-07-11 16:30:00,85.3,71.8,29.75,SSW,200,0.0,2.0,64,0.00,,OVC,0.04,163.00,VWS V14.00,2013-07-11 20:30:00,
2013-07-11 16:35:00,85.2,72.1,29.76,SSW,200,0.0,2.0,65,0.00,,OVC,0.04,165.00,VWS V14.00,2013-07-11 20:35:00,
2013-07-11 16:40:00,85.4,73.2,29.76,SSW,200,0.0,2.0,67,0.00,,OVC,0.04,151.00,VWS V14.00,2013-07-11 20:40:00,
2013-07-11 16:46:00,85.6,72.5,29.76,SSW,200,0.0,0.0,65,0.00,,OVC,0.04,156.00,VWS V14.00,2013-07-11 20:46:00,
2013-07-11 16:51:00,85.6,72.5,29.76,SSW,200,0.0,0.0,65,0.00,,OVC,0.04,179.00,VWS V14.00,2013-07-11 20:51:00,
2013-07-11 16:57:00,85.3,71.8,29.76,SSW,200,0.0,0.0,64,0.00,,OVC,0.04,185.00,VWS V14.00,2013-07-11 20:57:00,
2013-07-11 17:02:00,85.1,73.4,29.76,SSW,200,0.0,0.0,68,0.00,,OVC,0.04,174.00,VWS V14.00,2013-07-11 21:02:00,
2013-07-11 17:07:00,85.2,74.3,29.76,SSW,200,0.0,0.0,70,0.00,,OVC,0.04,169.00,VWS V14.00,2013-07-11 21:07:00,
2013-07-11 17:12:00,85.1,74.2,29.76,SSW,200,0.0,1.0,70,0.00,,OVC,0.04,186.00,VWS V14.00,2013-07-11 21:12:00,
2013-07-11 17:18:00,84.8,73.9,29.76,SSW,200,0.0,0.0,70,0.00,,OVC,0.04,185.00,VWS V14.00,2013-07-11 21:18:00,
2013-07-11 17:23:00,84.7,73.8,29.76,SSW,200,0.0,0.0,70,0.00,,OVC,0.04,188.00,VWS V14.00,2013-07-11 21:23:00,
2013-07-11 17:28:00,84.7,73.8,29.76,SSW,200,0.0,0.0,70,0.00,,OVC,0.04,160.00,VWS V14.00,2013-07-11 21:28:00,
2013-07-11 17:33:00,84.8,73.9,29.76,SSW,200,0.0,1.0,70,0.00,,OVC,0.04,151.00,VWS V14.00,2013-07-11 21:33:00,
2013-07-11 17:38:00,84.7,74.3,29.76,SSW,200,0.0,1.0,71,0.00,,OVC,0.04,121.00,VWS V14.00,2013-07-11 21:38:00,
2013-07-11 17:43:00,84.6,73.7,29.76,SSW,200,0.0,0.0,70,0.00,,OVC,0.04,116.00,VWS V14.00,2013-07-11 21:43:00,
2013-07-11 17:49:00,84.5,73.7,29.76,SSW,200,0.0,0.0,70,0.00,,OVC,0.04,134.00,VWS V14.00,2013-07-11 21:49:00,
2013-07-11 17:54:00,84.1,74.1,29.76,SSW,200,0.0,1.0,72,0.00,,OVC,0.04,127.00,VWS V14.00,2013-07-11 21:54:00,
2013-07-11 17:59:00,83.7,73.7,29.76,SSW,200,0.0,0.0,72,0.00,,OVC,0.04,91.00,VWS V14.00,2013-07-11 21:59:00,
2013-07-11 18:05:00,83.5,73.9,29.76,SSW,200,0.0,0.0,73,0.00,,OVC,0.04,79.00,VWS V14.00,2013-07-11 22:05:00,
2013-07-11 18:10:00,83.3,73.3,29.76,SSW,200,0.0,0.0,72,0.00,,OVC,0.04,54.00,VWS V14.00,2013-07-11 22:10:00,
2013-07-11 18:15:00,83.0,73.9,29.76,SSW,200,0.0,0.0,74,0.00,,OVC,0.04,67.00,VWS V14.00,2013-07-11 22:15:00,
2013-07-11 18:20:00,82.5,73.4,29.76,SSW,200,0.0,2.0,74,0.00,,OVC,0.04,81.00,VWS V14.00,2013-07-11 22:20:00,
2013-07-11 18:26:00,82.2,73.9,29.76,SSW,200,0.0,2.0,76,0.00,,OVC,0.04,84.00,VWS V14.00,2013-07-11 22:26:00,
2013-07-11 18:31:00,81.7,73.8,29.77,SSW,194,0.0,1.0,77,0.00,,OVC,0.04,83.00,VWS V14.00,2013-07-11 22:31:00,
2013-07-11 18:36:00,81.3,73.0,29.77,SSW,200,0.0,1.0,76,0.00,,OVC,0.04,76.00,VWS V14.00,2013-07-11 22:36:00,
2013-07-11 18:41:00,81.0,72.7,29.77,SSW,193,0.0,3.0,76,0.00,,OVC,0.04,70.00,VWS V14.00,2013-07-11 22:41:00,
2013-07-11 18:47:00,80.8,72.9,29.77,South,186,0.0,1.0,77,0.00,,OVC,0.04,69.00,VWS V14.00,2013-07-11 22:47:00,
2013-07-11 18:52:00,80.7,73.2,29.78,South,186,0.0,1.0,78,0.00,,OVC,0.04,63.00,VWS V14.00,2013-07-11 22:52:00,
2013-07-11 18:57:00,80.7,73.2,29.77,South,186,0.0,1.0,78,0.00,,OVC,0.04,60.00,VWS V14.00,2013-07-11 22:57:00,
2013-07-11 19:02:00,80.7,73.2,29.78,South,186,0.0,1.0,78,0.00,,OVC,0.04,53.00,VWS V14.00,2013-07-11 23:02:00,
2013-07-11 19:07:00,80.6,73.1,29.78,South,186,0.0,1.0,78,0.00,,OVC,0.04,51.00,VWS V14.00,2013-07-11 23:07:00,
2013-07-11 19:13:00,80.4,73.3,29.78,South,186,0.0,1.0,79,0.00,,OVC,0.04,44.00,VWS V14.00,2013-07-11 23:13:00,
2013-07-11 19:18:00,80.3,72.8,29.78,South,190,0.0,1.0,78,0.00,,OVC,0.04,37.00,VWS V14.00,2013-07-11 23:18:00,
2013-07-11 19:23:00,80.2,72.7,29.78,South,190,0.0,1.0,78,0.00,,OVC,0.04,33.00,VWS V14.00,2013-07-11 23:23:00,
2013-07-11 19:28:00,80.1,72.6,29.78,South,190,0.0,0.0,78,0.00,,OVC,0.04,32.00,VWS V14.00,2013-07-11 23:28:00,
2013-07-11 19:33:00,80.0,72.5,29.78,South,190,0.0,0.0,78,0.00,,OVC,0.04,28.00,VWS V14.00,2013-07-11 23:33:00,
2013-07-11 19:38:00,79.9,72.4,29.78,South,190,0.0,0.0,78,0.00,,OVC,0.04,23.00,VWS V14.00,2013-07-11 23:38:00,
2013-07-11 19:44:00,79.8,72.7,29.78,South,190,0.0,0.0,79,0.00,,OVC,0.04,19.00,VWS V14.00,2013-07-11 23:44:00,
2013-07-11 19:49:00,79.6,72.5,29.78,South,190,0.0,0.0,79,0.00,,OVC,0.04,16.00,VWS V14.00,2013-07-11 23:49:00,
2013-07-11 19:54:00,79.5,72.8,29.78,South,190,0.0,0.0,80,0.00,,OVC,0.04,14.00,VWS V14.00,2013-07-11 23:54:00,
2013-07-11 19:59:00,79.3,73.0,29.78,South,190,0.0,0.0,81,0.00,,OVC,0.04,12.00,VWS V14.00,2013-07-11 23:59:00,
2013-07-11 20:05:00,79.1,72.8,29.78,South,190,0.0,0.0,81,0.00,,OVC,0.04,9.00,VWS V14.00,2013-07-12 00:05:00,
2013-07-11 20:10:00,78.9,72.6,29.78,South,190,0.0,0.0,81,0.00,,OVC,0.04,5.00,VWS V14.00,2013-07-12 00:10:00,
2013-07-11 20:15:00,78.7,72.8,29.78,South,190,0.0,0.0,82,0.00,,OVC,0.04,5.00,VWS V14.00,2013-07-12 00:15:00,
2013-07-11 20:20:00,78.5,72.9,29.78,South,190,0.0,0.0,83,0.00,,OVC,0.04,5.00,VWS V14.00,2013-07-12 00:20:00,
2013-07-11 20:25:00,78.3,73.1,29.78,South,190,0.0,0.0,84,0.00,,OVC,0.04,5.00,VWS V14.00,2013-07-12 00:25:00,
2013-07-11 20:30:00,78.1,73.2,29.78,South,190,0.0,0.0,85,0.00,,OVC,0.04,0.00,VWS V14.00,2013-07-12 00:30:00,
2013-07-11 20:36:00,77.9,73.4,29.78,South,190,0.0,0.0,86,0.00,,OVC,0.04,0.00,VWS V14.00,2013-07-12 00:36:00,
2013-07-11 20:41:00,77.7,73.2,29.78,South,190,0.0,0.0,86,0.00,,OVC,0.04,0.00,VWS V14.00,2013-07-12 00:41:00,
2013-07-11 20:46:00,77.5,73.0,29.79,South,190,0.0,0.0,86,0.00,,OVC,0.04,0.00,VWS V14.00,2013-07-12 00:46:00,
2013-07-11 20:51:00,77.4,72.9,29.78,South,190,0.0,0.0,86,0.00,,OVC,0.04,0.00,VWS V14.00,2013-07-12 00:51:00,
2013-07-11 20:56:00,77.3,73.1,29.78,South,190,0.0,0.0,87,0.00,,OVC,0.04,0.00,VWS V14.00,2013-07-12 00:56:00,
2013-07-11 21:01:00,77.0,72.5,29.78,South,190,0.0,0.0,86,0.00,,OVC,0.04,0.00,VWS V14.00,2013-07-12 01:01:00,
2013-07-11 21:07:00,76.9,72.7,29.77,South,190,0.0,0.0,87,0.00,,OVC,0.04,0.00,VWS V14.00,2013-07-12 01:07:00,
2013-07-11 21:12:00,76.8,72.6,29.77,South,190,0.0,0.0,87,0.00,,OVC,0.04,0.00,VWS V14.00,2013-07-12 01:12:00,
2013-07-11 21:17:00,76.7,72.5,29.78,South,190,0.0,0.0,87,0.00,,OVC,0.04,0.00,VWS V14.00,2013-07-12 01:17:00,
2013-07-11 21:22:00,76.6,72.4,29.78,South,190,0.0,0.0,87,0.00,,OVC,0.04,0.00,VWS V14.00,2013-07-12 01:22:00,
2013-07-11 21:27:00,76.5,72.3,29.78,South,190,0.0,0.0,87,0.00,,OVC,0.04,0.00,VWS V14.00,2013-07-12 01:27:00,
2013-07-11 21:32:00,76.4,72.6,29.78,South,190,0.0,0.0,88,0.00,,OVC,0.04,0.00,VWS V14.00,2013-07-12 01:32:00,
2013-07-11 21:38:00,76.2,72.4,29.78,South,190,0.0,0.0,88,0.00,,OVC,0.04,0.00,VWS V14.00,2013-07-12 01:38:00,
2013-07-11 21:43:00,76.1,72.3,29.79,South,190,0.0,0.0,88,0.00,,OVC,0.04,0.00,VWS V14.00,2013-07-12 01:43:00,
2013-07-11 21:48:00,76.0,72.2,29.79,South,190,0.0,0.0,88,0.00,,OVC,0.04,0.00,VWS V14.00,2013-07-12 01:48:00,
2013-07-11 21:54:00,75.9,72.1,29.79,South,190,0.0,0.0,88,0.00,,OVC,0.04,0.00,VWS V14.00,2013-07-12 01:54:00,
2013-07-11 21:59:00,75.8,72.0,29.79,South,190,0.0,0.0,88,0.00,,OVC,0.04,0.00,VWS V14.00,2013-07-12 01:59:00,
2013-07-11 22:05:00,75.7,72.2,29.79,South,190,0.0,0.0,89,0.00,,OVC,0.04,0.00,VWS V14.00,2013-07-12 02:05:00,
2013-07-11 22:10:00,75.6,72.1,29.79,South,190,0.0,0.0,89,0.00,,OVC,0.04,0.00,VWS V14.00,2013-07-12 02:10:00,
2013-07-11 22:15:00,75.5,72.0,29.79,South,190,0.0,0.0,89,0.00,,OVC,0.04,0.00,VWS V14.00,2013-07-12 02:15:00,
2013-07-11 22:20:00,75.4,71.9,29.79,South,190,0.0,0.0,89,0.00,,OVC,0.04,0.00,VWS V14.00,2013-07-12 02:20:00,
2013-07-11 22:25:00,75.4,71.9,29.79,South,190,0.0,0.0,89,0.00,,OVC,0.04,0.00,VWS V14.00,2013-07-12 02:25:00,
2013-07-11 22:30:00,75.4,71.9,29.78,South,190,0.0,0.0,89,0.00,,OVC,0.04,0.00,VWS V14.00,2013-07-12 02:30:00,
2013-07-11 22:35:00,75.3,72.2,29.78,South,190,0.0,0.0,90,0.00,,OVC,0.04,0.00,VWS V14.00,2013-07-12 02:35:00,
2013-07-11 22:40:00,75.2,71.7,29.78,South,190,0.0,0.0,89,0.00,,OVC,0.04,0.00,VWS V14.00,2013-07-12 02:40:00,
2013-07-11 22:46:00,75.1,72.0,29.78,South,190,0.0,0.0,90,0.00,,OVC,0.04,0.00,VWS V14.00,2013-07-12 02:46:00,
2013-07-11 22:51:00,75.1,72.0,29.78,South,190,0.0,0.0,90,0.00,,OVC,0.04,0.00,VWS V14.00,2013-07-12 02:51:00,
2013-07-11 22:56:00,75.1,71.6,29.78,South,190,0.0,1.0,89,0.00,,OVC,0.04,0.00,VWS V14.00,2013-07-12 02:56:00,
2013-07-11 23:01:00,75.2,72.1,29.78,South,190,0.0,0.0,90,0.00,,OVC,0.04,0.00,VWS V14.00,2013-07-12 03:01:00,
2013-07-11 23:07:00,75.3,72.2,29.78,South,190,0.0,0.0,90,0.00,,OVC,0.04,0.00,VWS V14.00,2013-07-12 03:07:00,
2013-07-11 23:12:00,75.3,72.2,29.78,South,190,0.0,0.0,90,0.00,,OVC,0.04,0.00,VWS V14.00,2013-07-12 03:12:00,
2013-07-11 23:17:00,75.3,72.2,29.79,South,190,0.0,0.0,90,0.00,,OVC,0.04,0.00,VWS V14.00,2013-07-12 03:17:00,
2013-07-11 23:22:00,75.2,72.1,29.79,South,190,0.0,0.0,90,0.00,,OVC,0.04,0.00,VWS V14.00,2013-07-12 03:22:00,
2013-07-11 23:27:00,75.0,71.9,29.79,South,190,0.0,0.0,90,0.00,,OVC,0.04,0.00,VWS V14.00,2013-07-12 03:27:00,
2013-07-11 23:32:00,74.9,71.8,29.78,South,190,0.0,0.0,90,0.00,,OVC,0.04,0.00,VWS V14.00,2013-07-12 03:32:00,
2013-07-11 23:37:00,74.7,71.6,29.78,South,190,0.0,0.0,90,0.00,,OVC,0.04,0.00,VWS V14.00,2013-07-12 03:37:00,
2013-07-11 23:42:00,74.6,71.5,29.78,South,190,0.0,0.0,90,0.00,,OVC,0.04,0.00,VWS V14.00,2013-07-12 03:42:00,
2013-07-11 23:47:00,74.4,71.6,29.79,South,190,0.0,0.0,91,0.00,,OVC,0.04,0.00,VWS V14.00,2013-07-12 03:47:00,
2013-07-11 23:52:00,74.4,71.6,29.79,South,190,0.0,0.0,91,0.00,,OVC,0.04,0.00,VWS V14.00,2013-07-12 03:52:00,
2013-07-11 23:58:00,74.3,71.5,29.79,South,190,0.0,0.0,91,0.00,,OVC,0.00,0.00,VWS V14.00,2013-07-12 03:58:00,